Address 0xde464c084cd9a631507580e3562139bee279e358 1

 
 
Txn Hash Method
Block
From
To
Value [Txn Fee]
0x4c6abf281bdc9c547705e8e2158c36c2ae925ab67671aa8abc9d29a026512d12Claim Order365835062022-12-08 15:54:4053 mins ago0xde464c084cd9a631507580e3562139bee279e358OUT 0x86214d04286c0d853670bed2a6b1ed9bf14e39bc0 MATIC0.009460820586 69.486174377
0xa082af6a2f6adfe14431b59ed1bb7e6bca036de58dd47cf0bb25e02bb903eb1bClaim Order365818012022-12-08 14:56:021 hr 51 mins ago0xde464c084cd9a631507580e3562139bee279e358OUT 0x86214d04286c0d853670bed2a6b1ed9bf14e39bc0 MATIC0.014613608386 92.263453417
0xd7d166b07e7c7fc36f07e13c1e114a3b9463cb96c321900cf35506643f976c21Fulfill Advanced...365814192022-12-08 14:42:542 hrs 4 mins ago0xde464c084cd9a631507580e3562139bee279e358OUTSeaport 1.12.999999 MATIC0.025979426599 200.542097784
0x8ac211d0684f07fd1aa8270dd58a37fcd21459a17eb363f245ddc2319515d990Swap365812422022-12-08 14:36:482 hrs 10 mins ago0xde464c084cd9a631507580e3562139bee279e358OUT Metamask: Swap Router0 MATIC0.022532631833 107.879770157
0xc0a48a6d66b5c0d13d5e0f64ea035cbeff6dfd7aad6b3d9d7ce9074ae056ba48Claim Order365811212022-12-08 14:32:422 hrs 15 mins ago0xde464c084cd9a631507580e3562139bee279e358OUT 0x86214d04286c0d853670bed2a6b1ed9bf14e39bc0 MATIC0.019347724319 122.152435883
0xb9276cd4702e9bd7fc085682216e03522d4fd649ce9884cc094f520846bd77b3Collect From Til...365810742022-12-08 14:31:042 hrs 16 mins ago0xde464c084cd9a631507580e3562139bee279e358OUT 0x78f6ef4fa55e41b816cbc0f97a2d8743ba8795d90 MATIC0.041299548501 113.697688861
0x4c5e87fbcae352955c999b99e358b8d750f0a926885e62cd06963cd3af3ff0ccPlace Prospectin...365634022022-12-08 4:22:4812 hrs 24 mins ago0xde464c084cd9a631507580e3562139bee279e358OUT 0x86214d04286c0d853670bed2a6b1ed9bf14e39bc0 MATIC0.006410228199 30.000038372
0x3ea503d8111e14a314589d88ef63be88f704b454e2621ea9c5a7d51f51b56e0dPlace Prospectin...365633612022-12-08 4:21:2212 hrs 26 mins ago0xde464c084cd9a631507580e3562139bee279e358OUT 0x86214d04286c0d853670bed2a6b1ed9bf14e39bc0 MATIC0.006086812245 30.000109642
0x8f89fb144183a5418d55e8e73dd82d076419f036bb4c76ebb5411c1be1539e8bPlace Prospectin...365633052022-12-08 4:19:2612 hrs 28 mins ago0xde464c084cd9a631507580e3562139bee279e358OUT 0x86214d04286c0d853670bed2a6b1ed9bf14e39bc0 MATIC0.0062763915 30.000007172
0x71a9c50633df2d60f081456479946854ff72226f09b001542789797d276dbd45Collect From Til...365632202022-12-08 4:16:3212 hrs 31 mins ago0xde464c084cd9a631507580e3562139bee279e358OUT 0x78f6ef4fa55e41b816cbc0f97a2d8743ba8795d90 MATIC0.009775560482 30.000001481
0x3f9b5faab124ed5aa1146bf44b42a0941373c0ceb7dcec4bdc5610c30c9aee25Claim Order365541312022-12-07 22:43:3518 hrs 4 mins ago0xde464c084cd9a631507580e3562139bee279e358OUT 0xbb5f9ade0023ae87bdcd2268bdd74a2711654bdb0 MATIC0.002860093818 30.069850377
0x28591d6b38d6766b04dcd8c9d0ecd0a335bba3ccd058371ec701cc6e33008da1Claim Order365540992022-12-07 22:42:2718 hrs 5 mins ago0xde464c084cd9a631507580e3562139bee279e358OUT 0xbb5f9ade0023ae87bdcd2268bdd74a2711654bdb0 MATIC0.003514371528 30.004281848
0xa5fdc68dbd82bd701be3c5b84367913f523d083e4954e89033f15d976780a483Claim Order365540462022-12-07 22:40:3718 hrs 7 mins ago0xde464c084cd9a631507580e3562139bee279e358OUT 0x86214d04286c0d853670bed2a6b1ed9bf14e39bc0 MATIC0.004085386314 30.005628293
0x9b3bd374f66668b2a363aee14af496a04a3f353ec19314591f5bbae347fda911Claim Order365540072022-12-07 22:39:1918 hrs 8 mins ago0xde464c084cd9a631507580e3562139bee279e358OUT 0x86214d04286c0d853670bed2a6b1ed9bf14e39bc0 MATIC0.004752930185 30.007766816
0x378f3ebfcc60207ea8f0c67017069e3b3bae80f3f477912d3f2ee82179001328Claim Order365539692022-12-07 22:37:5918 hrs 9 mins ago0xde464c084cd9a631507580e3562139bee279e358OUT 0x86214d04286c0d853670bed2a6b1ed9bf14e39bc0 MATIC0.004754453838 30.017386439
0xf1bc75e1c24d8d6cdc49338260123153649baf6f973fe1cd2122f371eab6a7dbClaim Order365538212022-12-07 22:32:5518 hrs 14 mins ago0xde464c084cd9a631507580e3562139bee279e358OUT 0x86214d04286c0d853670bed2a6b1ed9bf14e39bc0 MATIC0.005494569287 34.690127452
0x2bce702fb14e8fcc0c78a987c66b04719ea6e40377926548aa83edc7cb294611Collect From Til...365537952022-12-07 22:32:0318 hrs 15 mins ago0xde464c084cd9a631507580e3562139bee279e358OUT 0x78f6ef4fa55e41b816cbc0f97a2d8743ba8795d90 MATIC0.003702018334 30.159254532
0xcd2e6db4d8eef33d5a6ffff559ae30add3ed25068a1ded916f1bf2916e0ffdaaCollect From Til...365537582022-12-07 22:30:4518 hrs 16 mins ago0xde464c084cd9a631507580e3562139bee279e358OUT 0x78f6ef4fa55e41b816cbc0f97a2d8743ba8795d90 MATIC0.010517793548 30.196385288
0x142f07e084bcd531bcd9afe14c1883db1c99c704962b7f628d0dacc94ed03638Place Prospectin...365430532022-12-07 16:08:591 day 38 mins ago0xde464c084cd9a631507580e3562139bee279e358OUT 0x86214d04286c0d853670bed2a6b1ed9bf14e39bc0 MATIC0.009306208004 41.461353076
0x0bc7c6cf35a1f2aa0d6a5c306802faad6e83e357eb231cc3eb287138c1c3ac59Place Prospectin...365429642022-12-07 16:05:531 day 41 mins ago0xde464c084cd9a631507580e3562139bee279e358OUT 0x86214d04286c0d853670bed2a6b1ed9bf14e39bc0 MATIC0.008424662855 39.427646112
0x76b2189211c0597dba2b30c1d37fb7fa076f357a3f2ce23c0383543e3bca2f1ePlace Prospectin...365429182022-12-07 16:04:211 day 43 mins ago0xde464c084cd9a631507580e3562139bee279e358OUT 0x86214d04286c0d853670bed2a6b1ed9bf14e39bc0 MATIC0.00880935481 43.418722233
0x7e1690c9dbb4928453f0de8acb0093d53fa4d34dab27aa094de4f8f98d3d4127Place Prospectin...365428852022-12-07 16:03:111 day 44 mins ago0xde464c084cd9a631507580e3562139bee279e358OUT 0x86214d04286c0d853670bed2a6b1ed9bf14e39bc0 MATIC0.008851607239 42.309068937
0x073999fbe5058db2360e68344d33facd267e1de2e1ea8050e595fb3c19c0321cPlace Waste Orde...365412272022-12-07 15:06:111 day 1 hr ago0xde464c084cd9a631507580e3562139bee279e358OUT 0xbb5f9ade0023ae87bdcd2268bdd74a2711654bdb0 MATIC0.00925317976 50.478038745
0xd693bd4f40c4d77d030511b44141bf1be0d76bd3c116bf2ff72120fec21de34cPlace Waste Orde...365411822022-12-07 15:04:351 day 1 hr ago0xde464c084cd9a631507580e3562139bee279e358OUT 0xbb5f9ade0023ae87bdcd2268bdd74a2711654bdb0 MATIC0.016263019361 86.040892849
0xb40d6858641a51615ba1bb85ec2dc257bc932e7f88cdf17feff1801d8962a62dCollect From Til...365410042022-12-07 14:58:311 day 1 hr ago0xde464c084cd9a631507580e3562139bee279e358OUT 0x78f6ef4fa55e41b816cbc0f97a2d8743ba8795d90 MATIC0.022088837119 64.700374103
[ Download CSV Export 
Latest 6 internal transactions
Parent Txn Hash Block From To Value
0x8ac211d0684f07fd1aa8270dd58a37fcd21459a17eb363f245ddc2319515d990365812422022-12-08 14:36:482 hrs 10 mins ago 0xc590175e458b83680867afd273527ff58f74c02b0xde464c084cd9a631507580e3562139bee279e3583.005568793120082269 MATIC
0xa9ab730be1666c97d8ab13b273d56aed9bb3a8b702ed31a8f9b92b04cca93b90365043762022-12-06 17:24:211 day 23 hrs ago 0xc590175e458b83680867afd273527ff58f74c02b0xde464c084cd9a631507580e3562139bee279e3580.541253183956190673 MATIC
0xfcb49cfcde2d408d53fd9a43698b6bcea8de75ba6d2e0e42e25edd6112aa7974361358352022-11-27 15:03:2411 days 1 hr ago 0xc590175e458b83680867afd273527ff58f74c02b0xde464c084cd9a631507580e3562139bee279e3580.970782682663404868 MATIC
0x91e0447283af243e4c46b8d141c4a195240d133867bb6ff260c59972aac70ab6328541552022-09-08 17:15:1690 days 23 hrs ago 0xc590175e458b83680867afd273527ff58f74c02b0xde464c084cd9a631507580e3562139bee279e3580.904753791167970219 MATIC
0x34b6c29a45742718c0c742a4408d66467a20cb0c17d0f3486f7dc55366d50f70267339712022-04-04 12:34:17248 days 4 hrs ago 0x2334bc478c60bee7674529580659cd6c115cbcbc0xde464c084cd9a631507580e3562139bee279e3581 MATIC
0x082d87f853623ff7b6d0b830255ef1dbfec0e6a678cc66c4bd5852946651de02217231222021-11-23 22:52:24379 days 17 hrs ago 0x7d1288e5dbc91b9d2e7be736cc789114e8d58f690xde464c084cd9a631507580e3562139bee279e3580.1 MATIC
[ Download CSV Export 
Loading

Contract Name:
0 MATIC

Compiler Version
0

Optimization Enabled:
0 MATIC

Other Settings:
-NA-
Block Transaction Gas Used Reward
Age Block Fee Address BC Fee Address Voting Power Jailed Incoming
Block Uncle Number Difficulty Gas Used Reward
Loading
Loading
Make sure to use the "Vote Down" button for any spammy posts, and the "Vote Up" for interesting conversations.